Weather History for K0J4 - September, 2013

Change the Weather History Date:

Thursday, September 19, 2013

  Actual Average (KCEW) Record (KCEW)
Temperature  
Mean Temperature 78 °F -  
Max Temperature 88 °F 88 °F 96 °F (2005)
Min Temperature 68 °F 66 °F 50 °F (1981)
Cooling Degree Days 13    
Growing Degree Days 28 (Base 50)    
Moisture  
Dew Point 68 °F    
Average Humidity 72    
Maximum Humidity 90    
Minimum Humidity 51    
Precipitation  
Precipitation 0.00 in - - ()
Sea Level Pressure  
Sea Level Pressure 30.08 in    
Wind  
Wind Speed 5 mph (East)    
Max Wind Speed 10 mph    
Max Gust Speed 17 mph    
Visibility 10 miles    
Events      
Averages and records for this station are not official NWS values.
T = Trace of Precipitation, MM = Missing Value Source: NWS Daily Summary

Daily Weather History Graph

Daily Weather History Graph

Search for Another Location

Airport or City:

Trip Planner

Search our weather history database for the weather conditions in past years. The results will help you decide how hot, cold, wet, or windy it might be!

Date:

Astronomy

Sep. 19, 2013 Rise Set
Actual Time 6:31 AM CDT 6:45 PM CDT
Civil Twilight 6:07 AM CDT 7:09 PM CDT
Nautical Twilight 5:39 AM CDT 7:37 PM CDT
Astronomical Twilight 5:10 AM CDT 8:06 PM CDT
Moon 6:48 PM CDT (9/19) 6:37 AM CDT (9/19)
Length of Visible Light 13h 01m
Length of Day
12h 13m
Full, 100% of the Moon is Illuminated
Sep 19
Full
Sep 26
Last Quarter
Oct 4
New
Oct 11
First Quarter
Oct 18
Full

Hourly Weather History & Observations

Time (CDT) Temp. Heat Index Dew Point Humidity Pressure Visibility Wind Dir Wind Speed Gust Speed Precip Events Conditions
12:58 AM 73.0 °F - 66.9 °F 81% 30.09 in 10.0 mi ENE 3.5 mph - N/A   Clear
1:58 AM 71.1 °F - 66.0 °F 84% 30.08 in 10.0 mi East 4.6 mph - N/A   Clear
2:58 AM 70.0 °F - 64.9 °F 84% 30.06 in 10.0 mi ENE 4.6 mph - N/A   Clear
3:58 AM 70.0 °F - 64.9 °F 84% 30.07 in 10.0 mi ENE 3.5 mph - N/A   Clear
4:58 AM 69.1 °F - 64.9 °F 87% 30.08 in 10.0 mi ENE 3.5 mph - N/A   Clear
5:58 AM 68.0 °F - 64.9 °F 90% 30.08 in 10.0 mi East 3.5 mph - N/A   Clear
6:58 AM 68.0 °F - 64.9 °F 90% 30.10 in 10.0 mi ENE 5.8 mph - N/A   Clear
7:58 AM 71.1 °F - 66.0 °F 84% 30.11 in 10.0 mi Variable 5.8 mph - N/A   Clear
8:58 AM 75.0 °F - 66.9 °F 76% 30.12 in 10.0 mi East 6.9 mph 17.3 mph N/A   Clear
9:58 AM 78.1 °F - 68.0 °F 71% 30.13 in 10.0 mi East 8.1 mph - N/A   Clear
10:58 AM 81.0 °F 84.1 °F 69.1 °F 67% 30.13 in 10.0 mi ESE 8.1 mph - N/A   Partly Cloudy
11:40 AM 84.2 °F 88.4 °F 69.8 °F 62% 30.13 in 10.0 mi Variable 6.9 mph - N/A   Mostly Cloudy
11:54 AM 82.4 °F 86.3 °F 69.8 °F 66% 30.13 in 10.0 mi Variable 5.8 mph - N/A   Scattered Clouds
11:58 AM 82.9 °F 86.5 °F 69.1 °F 63% 30.12 in 10.0 mi East 5.8 mph - N/A   Scattered Clouds
12:58 PM 86.0 °F 89.4 °F 68.0 °F 55% 30.10 in 10.0 mi ESE 8.1 mph - N/A   Clear
1:58 PM 87.1 °F 91.3 °F 69.1 °F 55% 30.08 in 10.0 mi ENE 9.2 mph - N/A   Partly Cloudy
2:58 PM 87.1 °F 90.6 °F 68.0 °F 53% 30.06 in 10.0 mi SE 5.8 mph - N/A   Scattered Clouds
3:58 PM 88.0 °F 91.4 °F 68.0 °F 51% 30.04 in 10.0 mi East 10.4 mph - N/A   Scattered Clouds
4:58 PM 86.0 °F 89.4 °F 68.0 °F 55% 30.04 in 10.0 mi East 5.8 mph - N/A   Partly Cloudy
5:58 PM 84.9 °F 88.2 °F 68.0 °F 57% 30.04 in 10.0 mi ENE 3.5 mph - N/A   Clear
6:58 PM 80.1 °F 83.2 °F 70.0 °F 71% 30.04 in 10.0 mi Calm Calm - N/A   Clear
7:58 PM 78.1 °F - 69.1 °F 74% 30.04 in 10.0 mi Calm Calm - N/A   Clear
8:58 PM 73.9 °F - 69.1 °F 85% 30.06 in 10.0 mi Calm Calm - N/A   Clear
9:58 PM 75.9 °F - 68.0 °F 76% 30.06 in 10.0 mi East 3.5 mph - N/A   Clear
10:58 PM 75.0 °F - 68.0 °F 79% 30.06 in 10.0 mi East 4.6 mph - N/A   Clear
11:58 PM 73.0 °F - 66.0 °F 79% 30.06 in 10.0 mi Calm Calm - N/A   Scattered Clouds